Commit Graph

  • edd6e74813 bimtester: steps, add element class attributes test Bernd Hahnebach 2020-12-21 17:01:28 +01:00
  • 2a6efaaaa4 bimtester: step, prepare attributes eleclasses for translation Bernd Hahnebach 2020-12-21 16:57:38 +01:00
  • dafdd06b2e bimtester: steps, split steps testmodule Bernd Hahnebach 2020-12-21 16:32:36 +01:00
  • 1a48472b19 bimtester: steps, sort them according expression matcher Bernd Hahnebach 2020-12-21 16:07:08 +01:00
  • 8e78ed332f bimtester: steps, move project test into project test module Bernd Hahnebach 2020-12-21 16:05:06 +01:00
  • de5dc40e63 bimtester: steps, add new test module for spatial structure Bernd Hahnebach 2020-12-21 15:56:26 +01:00
  • 60dd74c64d bimtester: steps, better name for element class guid tests Bernd Hahnebach 2020-12-21 15:55:57 +01:00
  • ff0a7891be decorators code cleanup QwiglyDee 2020-12-21 20:22:23 +07:00
  • a14c0f70a6 decorator for hidden close #1178 QwiglyDee 2020-12-21 20:22:23 +07:00
  • babbd51e70 decorations for Dim, Eq, Leader, Stair close #1177, #1176, #1158, #1150 QwiglyDee 2020-12-21 20:22:23 +07:00
  • ec02c8600b refactored shaders QwiglyDee 2020-12-21 20:22:23 +07:00
  • 0c06639635 decorator classes for Dim/Eq/Leader/Stair/Hidden QwiglyDee 2020-12-21 20:22:23 +07:00
  • 97913e8592 fixed #1157 again with proper perspective correction QwiglyDee 2020-12-21 20:22:23 +07:00
  • 26d537cb4f gitignore: add gettext binary translation files, used in bimtester Bernd Hahnebach 2020-12-21 12:12:43 +01:00
  • 3b856f446e bimtester: remove binary mo files from repository Bernd Hahnebach 2020-12-21 12:08:20 +01:00
  • b8fe04b7a9 bimtester: fix error in step code Bernd Hahnebach 2020-12-21 11:28:51 +01:00
  • 81326ba48f bimtester: improve and translate geometric representation class type test Bernd Hahnebach 2020-12-21 10:31:05 +01:00
  • 21a7599d45 bimtester: small code improvements Bernd Hahnebach 2020-12-21 10:28:03 +01:00
  • 1074c2431c bimtester: add dummy feature file to be able to run a command to get all implemented steps Bernd Hahnebach 2020-12-21 10:19:37 +01:00
  • b77aa11776 Update johltn 2020-12-21 10:15:39 +01:00
  • b6cf97a291 Change RST file title johltn 2020-12-21 09:32:52 +01:00
  • eb0f2de197 New snap spaces together utility for cleaning up spaces for energy modeling Dion Moult 2020-12-21 18:26:39 +11:00
  • d7034c6a40 Merge pull request #2 from IfcOpenShell/v0.6.0 GisSpace 2020-12-21 11:13:59 +08:00
  • 1a48343bcb Optimise import and editing for files with lots of aggregations Dion Moult 2020-12-21 10:44:14 +11:00
  • b0bd027f84 Optimise import to only consider surface styles Dion Moult 2020-12-21 10:43:21 +11:00
  • 8bf530d0d7 Missing file that accompanies 9bcd932bed Thomas Krijnen 2020-12-20 21:53:51 +01:00
  • a3bc159359 #1173 mutex in get_default_style() Thomas Krijnen 2020-12-20 14:38:54 +01:00
  • 7d756138f2 Add generator expresss_parser.py Thomas Krijnen 2020-12-20 11:10:21 +01:00
  • c16b63e5ae New import code profiler in the IFC debug panel Dion Moult 2020-12-20 13:48:31 +11:00
  • 3eee5aba78 Optimise presentation layer assignment which was ridiculously slow and badly implemented Dion Moult 2020-12-20 11:03:19 +11:00
  • 05d835410d Reimplement basic BCF metadata editing and further improve BCF UI Dion Moult 2020-12-19 21:48:23 +11:00
  • 03d8537a2d Revert borked submodules. See #1186. Dion Moult 2020-12-19 14:29:43 +11:00
  • 509ee78b67 Merge pull request #1184 from IFCRail/v0.6.0-ifcrail-mod Dion Moult 2020-12-19 14:24:52 +11:00
  • 8cc546a9a2 Add path option for providing a schema in a step Roch Bertucat 2020-12-18 17:14:55 +01:00
  • 0ab82295f9 Fix a small issue in report path Roch Bertucat 2020-12-18 16:51:01 +01:00
  • 0f66f88420 Revert template change Roch Bertucat 2020-12-18 16:25:00 +01:00
  • 5572faf8b4 Fix an issue with localedir Roch Bertucat 2020-12-18 16:12:11 +01:00
  • 322860cc51 Merge remote-tracking branch 'origin/v0.6.0-ifcrail-contrib' into v0.6.0-ifcrail-mod Roch Bertucat 2020-12-18 15:44:46 +01:00
  • 1bff04d2c0 Merge pull request #3 from IfcOpenShell/v0.6.0 rbertucat 2020-12-18 12:54:34 +01:00
  • de4f18e2af New UI to show BCF comments in the BCF panel as a subpanel Dion Moult 2020-12-18 22:12:13 +11:00
  • 03dd4c39b7 Add skipped step to the HTML template Roch Bertucat 2020-12-18 11:24:33 +01:00
  • fc7d05c691 Improve referencing files using the path if available Roch Bertucat 2020-12-18 11:24:01 +01:00
  • 854a0fe863 Add a way to specify a path to the arguments Roch Bertucat 2020-12-18 11:22:51 +01:00
  • 9ffc2874da Add a way to stop if fail step and improve report accordingly Roch Bertucat 2020-12-18 11:22:14 +01:00
  • e01b677845 Add build/dist folders to gitignore Roch Bertucat 2020-12-18 11:20:42 +01:00
  • ac632d0698 Merge pull request #1 from IfcOpenShell/v0.6.0 GisSpace 2020-12-18 16:23:04 +08:00
  • 85a78a6e48 bimtester: se gettext for message translation Bernd Hahnebach 2020-12-18 07:14:42 +01:00
  • 3ae20637d7 bimtester: code formating Bernd Hahnebach 2020-12-18 07:06:14 +01:00
  • 7dd40149aa Migrate from bcfplugin to new bcf library in the BlenderBIM Add-on Dion Moult 2020-12-18 16:28:17 +11:00
  • d08da0a61d Document basic usage of bcf library Dion Moult 2020-12-17 22:47:15 +11:00
  • 1b09bb37e8 The BCF-XML library can now handle most data writing functions Dion Moult 2020-12-16 23:47:50 +11:00
  • 90f225e93b bimtester: improve submodule handling for step translation Bernd Hahnebach 2020-12-16 08:33:39 +01:00
  • f00040c7d9 decorators for equal dimentions #1158 QwiglyDee 2020-12-16 17:29:15 +07:00
  • b8286e8fb5 arrow size fix #1157 QwiglyDee 2020-12-16 17:06:36 +07:00
  • dbafcc2fa1 fixed #1159 zero projection QwiglyDee 2020-12-16 16:54:49 +07:00
  • a869e88de0 fix: use correct initializer function when compiling with USE_MMAP Håkon Åmdal 2020-12-15 09:44:19 +01:00
  • 5ad6abea1a Add simple BCF library to supersede bcfplugin, with bcfxml read capability Dion Moult 2020-12-15 14:49:29 +11:00
  • d00da09cdc start translation into German and French with one step as well as the report Bernd Hahnebach 2020-12-15 00:04:26 +01:00
  • 17a8b33387 You can new create new BCF projects from scratch Dion Moult 2020-12-14 13:51:01 +11:00
  • 4f2bf3a36f You can now add new BCF topics to a BCF project Dion Moult 2020-12-14 13:29:52 +11:00
  • e208dd0381 Update selector.py Carlos Dias 2020-12-13 22:55:53 -03:00
  • a62a32d414 Support for setting the BCF author. You can also now edit basic BCF topic metadata. Dion Moult 2020-12-13 21:56:04 +11:00
  • 6a06c292a1 Fix #1148. Fix crash when creating drawings on Windows with Blender >= 2.91 Dion Moult 2020-12-13 16:54:11 +11:00
  • 9dcf44fbea You can now view and edit the BCF project name Dion Moult 2020-12-13 16:35:51 +11:00
  • e39a997f5f Bump to latest bcfplugin, new operator to save BCF projects Dion Moult 2020-12-13 13:44:50 +11:00
  • f3269b732f More sensible names for the Smart Clash Groups Vincent Cadoret 2020-12-11 20:46:07 -05:00
  • 14c726008d Split out clashes that were not grouped so they so up individually. Vincent Cadoret 2020-12-11 19:50:15 -05:00
  • c0b4115202 Merge pull request #1 from engisis-com/v0.6.0 rbertucat 2020-12-11 15:48:56 +01:00
  • d5e6721ac4 Minor fix to support multiple dimension objects for decorations. See #1150. Dion Moult 2020-12-11 11:13:48 +11:00
  • 48de2f77ab fix arrows heads QwiglyDee 2020-12-11 05:44:50 +07:00
  • f37283f61c drawing arrows QwiglyDee 2020-12-11 04:15:37 +07:00
  • cc5f34a705 text drawing QwiglyDee 2020-12-11 01:43:00 +07:00
  • 33bf7054bf ui and decorator handler QwiglyDee 2020-12-10 23:49:35 +07:00
  • f3696788cb #1097 fix:IFC file conversion obj file, some cases will be rotated 90 ° admin 2020-12-10 18:44:23 +08:00
  • 14193fb486 #1126 more elaborate polygonal curve segment check Thomas Krijnen 2020-12-10 10:48:14 +01:00
  • 34174dd3f3 Add a set of steps to test aggregations in IFC files Roch Bertucat 2020-12-10 10:42:49 +01:00
  • 479b937f81 Add a way to load a custom IFC Schema and add util methods Roch Bertucat 2020-12-10 10:37:17 +01:00
  • cada9c9e3b Specify encoding for HTML report for special characters Roch Bertucat 2020-12-10 10:35:47 +01:00
  • 860d795ba1 Add a way to generate a report after the tests in the same command Roch Bertucat 2020-12-10 10:35:13 +01:00
  • 2ac0b75dbc New Link IFC operator to easily append IFCs from another Blend file into a master file Dion Moult 2020-12-10 13:52:29 +11:00
  • fb7998980d Fix bug where aggregates were accidentally hidden when generating drawings Dion Moult 2020-12-10 13:51:51 +11:00
  • b9af4906aa Fix bug where selecting the IFC file for drawing generation didn't work Dion Moult 2020-12-10 13:51:27 +11:00
  • ce6350a52f New clean wireframes operator to easily apply edge split modifier to nicer drawings Dion Moult 2020-12-10 13:50:43 +11:00
  • b65c1e94ad Purge old experimental painter algorithm code for vector background elements Dion Moult 2020-12-09 10:38:13 +11:00
  • 0387783e9d Minor fix Dion Moult 2020-12-07 17:28:16 +11:00
  • b72b2aa7d7 Package new BIMTester for the BlenderBIM Add-on Dion Moult 2020-12-07 16:42:01 +11:00
  • c1bbb1e721 You can now bake parametric geometry to meshes Dion Moult 2020-12-07 15:33:51 +11:00
  • 0d28e741fc Fix bug where spatial elements didn't get styles exported correctly Dion Moult 2020-12-06 19:10:03 +11:00
  • 0d03b4e008 Allow graceful migration of IFC entities when exporting so the user doesn't need to fix every invalid schema attribute themselves3RlG$Bayj3kPlwh4EEvXJP Dion Moult 2020-12-06 11:37:48 +11:00
  • 981f0c23c7 apply matrix to object in BlenderClasher fbpyr 2020-12-04 08:47:00 +01:00
  • 884e8a5663 Fix #1071. New IFC file version 2X3<->4 upgrader and downgrader IfcPatch recipe Dion Moult 2020-12-04 11:52:18 +11:00
  • 06685f9768 Fix example script for printing out properties. See #1145. Dion Moult 2020-12-04 10:59:59 +11:00
  • 9a20de914b Add new workaround for the DESITE BIM application Dion Moult 2020-12-04 09:23:44 +11:00
  • 26f6e875ed bimtester: add more ifc file tests Bernd Hahnebach 2020-12-03 18:19:05 +01:00
  • cda131d6c1 bimtester: move ifc steps in separte module Bernd Hahnebach 2020-12-03 18:15:10 +01:00
  • e1fa6fb306 You can now apply drawing styles to elements with material set usages Dion Moult 2020-12-03 22:17:46 +11:00
  • 679c2bef02 Fix bug where aggregates cause drawing generation to fail Dion Moult 2020-12-03 21:52:17 +11:00
  • 8bb157ce0a Auto-add the currently loaded IFC when creating a drawing for the first time Dion Moult 2020-12-03 21:51:14 +11:00
  • bdaf8cd0f3 Fix import bug where duplicate material names with accents cause import to fail Dion Moult 2020-12-03 21:44:20 +11:00
  • 4e62c276ee Fix #1111 - issue where sometimes class and product dropdown gets out of sync. Also new utility function to query is_a() in the schema. Dion Moult 2020-12-02 09:51:00 +11:00